Location: Dresden
(51.0483°N, 13.7137°E)
Time: 10:34:07
(UTC+01:00)

Tiangong 2 - Visible Passes

Search period start: 24 November 2017 00:00
Search period end: 04 December 2017 00:00
Orbit: 386 x 392 km, 42.8° (Epoch: 24 November)

Date Brightness Start Highest point End Pass type
(mag) Time Alt. Az. Time Alt. Az. Time Alt. Az.
27 Nov 4.2 06:51:41 10° S 06:52:57 12° SSE 06:54:14 10° SE visible
29 Nov 3.9 06:31:02 10° SSW 06:33:00 15° SSE 06:34:57 10° SE visible
30 Nov 4.0 05:33:36 10° S 05:34:58 12° SSE 05:36:22 10° SE visible
01 Dec 3.6 06:10:46 10° SW 06:13:01 18° S 06:15:16 10° SE visible
02 Dec 3.6 05:15:01 15° SSE 05:15:01 15° SSE 05:16:56 10° SE visible
02 Dec 3.5 06:48:48 10° SW 06:51:06 18° S 06:53:25 10° SE visible
03 Dec 3.3 05:51:50 16° SSW 05:53:00 19° S 05:55:21 10° SE visible
